Big Delta, AK

4:05 AM AKDT on August 22, 2017 (GMT -0800)
Allen Army Air Field

Weather History for PABI - November, 2012

Change the Weather History Date:

Thursday, November 8, 2012

  Actual Average Record
Temperature  
Mean Temperature -11 °F -  
Max Temperature 3 °F 18 °F 42 °F (2003)
Min Temperature -25 °F 6 °F -25 °F (2012)
Degree Days  
Heating Degree Days 76    
Moisture  
Dew Point -10 °F    
Average Humidity 71    
Maximum Humidity 82    
Minimum Humidity 52    
Precipitation  
Precipitation 0.04 in - - ()
Sea Level Pressure  
Sea Level Pressure 30.51 in    
Wind  
Wind Speed 13 mph (ESE)    
Max Wind Speed 31 mph    
Max Gust Speed 45 mph    
Visibility 10 miles    
Events      
Averages and records for this station are not official NWS values.
T = Trace of Precipitation, MM = Missing Value Source: NWS Daily Summary

Daily Weather History Graph

Daily Weather History Graph

Search for Another Location

Airport or City:

Trip Planner

Search our weather history database for the weather conditions in past years. The results will help you decide how hot, cold, wet, or windy it might be!

Date:

Astronomy

Nov. 08, 2012 Rise Set
Actual Time 8:49 AM AKST 4:02 PM AKST
Civil Twilight 7:53 AM AKST 4:58 PM AKST
Nautical Twilight 6:55 AM AKST 5:57 PM AKST
Astronomical Twilight 5:59 AM AKST 6:52 PM AKST
Moon 12:57 AM AKST (11/8) 2:32 PM AKST (11/8)
Length of Visible Light 9h 04m
Length of Day
7h 12m
Waning Crescent, 31% of the Moon is Illuminated
Nov 8
Waning Crescent
Nov 13
New
Nov 20
First Quarter
Nov 28
Full
Dec 6
Last Quarter

Hourly Weather History & Observations

Time (AKST) Temp. Windchill Dew Point Humidity Pressure Visibility Wind Dir Wind Speed Gust Speed Precip Events Conditions
12:53 AM -18.0 °F -28.5 °F -22.0 °F 82% 30.66 in 10.0 mi South 3.5 mph - N/A   Clear
1:53 AM -17.0 °F -27.2 °F -22.0 °F 78% 30.65 in 10.0 mi SSE 3.5 mph - N/A   Clear
2:53 AM -15.0 °F -27.4 °F -20.0 °F 78% 30.64 in 10.0 mi South 4.6 mph - N/A   Clear
3:53 AM -17.0 °F - -22.0 °F 78% 30.64 in 10.0 mi Calm Calm - N/A   Clear
4:53 AM -20.0 °F - -25.1 °F 78% 30.65 in 10.0 mi Calm Calm - N/A   Clear
5:53 AM -16.1 °F - -20.0 °F 82% 30.63 in 10.0 mi Calm Calm - N/A   Clear
6:53 AM -11.9 °F - -16.1 °F 82% 30.62 in 10.0 mi Calm Calm - N/A   Clear
7:53 AM -4.0 °F -22.1 °F -9.9 °F 76% 30.60 in 10.0 mi East 11.5 mph - N/A   Clear
8:53 AM -2.0 °F -21.9 °F -8.0 °F 76% 30.58 in 10.0 mi East 15.0 mph - N/A   Partly Cloudy
9:53 AM -0.0 °F -22.4 °F -7.1 °F 72% 30.57 in 10.0 mi ESE 20.7 mph 26.5 mph 0.05 in   Partly Cloudy
10:53 AM -0.0 °F -21.3 °F -6.0 °F 76% 30.56 in 10.0 mi ESE 18.4 mph - N/A   Partly Cloudy
11:53 AM 1.9 °F -20.7 °F -5.1 °F 72% 30.55 in 10.0 mi ESE 23.0 mph 33.4 mph N/A   Partly Cloudy
12:53 PM 3.0 °F -19.3 °F -5.1 °F 69% 30.53 in 10.0 mi ESE 23.0 mph 34.5 mph N/A   Partly Cloudy
1:53 PM 3.9 °F -19.8 °F -5.1 °F 66% 30.51 in 10.0 mi ESE 27.6 mph 34.5 mph N/A   Scattered Clouds
2:53 PM 3.9 °F -19.8 °F -5.1 °F 66% 30.49 in 10.0 mi ESE 27.6 mph 36.8 mph N/A   Scattered Clouds
3:53 PM 3.0 °F -21.0 °F -5.1 °F 69% 30.47 in 5.0 mi ESE 27.6 mph 41.4 mph N/A   Mostly Cloudy
4:53 PM 3.0 °F -21.0 °F -5.1 °F 69% 30.45 in 10.0 mi ESE 27.6 mph 40.3 mph N/A   Mostly Cloudy
5:53 PM 1.9 °F -22.8 °F -6.0 °F 69% 30.43 in 10.0 mi ESE 28.8 mph 43.7 mph N/A   Mostly Cloudy
6:53 PM 1.9 °F -23.2 °F -6.0 °F 69% 30.41 in 10.0 mi ESE 29.9 mph 40.3 mph N/A   Mostly Cloudy
7:53 PM 1.9 °F -23.6 °F -6.0 °F 69% 30.37 in 10.0 mi ESE 31.1 mph 43.7 mph N/A   Mostly Cloudy
8:53 PM 1.9 °F -23.6 °F -6.0 °F 69% 30.35 in 10.0 mi ESE 31.1 mph 39.1 mph N/A   Mostly Cloudy
9:53 PM 1.9 °F -23.6 °F -6.0 °F 69% 30.34 in 10.0 mi ESE 31.1 mph 43.7 mph N/A   Clear
10:53 PM 3.0 °F -22.1 °F -6.0 °F 66% 30.30 in 5.0 mi ESE 31.1 mph 44.9 mph N/A   Haze
11:53 PM 3.0 °F -19.7 °F -6.0 °F 66% 30.32 in 10.0 mi ESE 24.2 mph 40.3 mph N/A   Clear